COSMOS 1275 DEB

Satellite information

Favourite Embed

Satellite Type and Status

DEBRISIN ORBIT

Key statistics

Satellite COSMOS 1275 DEB at a glance.

Uptime

16102

Days in orbit

Revolutions

≈ 14.3

Per day

Orbit

LEO

Low Earth Orbit

Inclination

82.9

Latest

Satellite identification and parameters

Extended collection of information and parameters for COSMOS 1275 DEB.

Object identification

Identified? True

Debris? True

Object name: COSMOS 1275 DEB

International designator: 1981-053GY

Object number (NORAD): 13804

Object ID (CCSDS): 13804

Country: COMMONWEALTH OF INDEPENDENT STATES (CIS)

Current information (Y/N): Y

RCS size: SMALL

Orbital parameters

Period: 100.576 minutes

Inclination: 82.945 deg

SMA: 7164.009 km

Apoapsis: 815.778 km

Periapsis: 755.97 km

RAAN: 157.2203 deg

Eccentricy: 0.0041742

Argument of periapsis: 24.3752 deg

Mean anomaly: 103.4204 deg

Mean motion: 14.31754593 rev/day

Mean motion (dot): 0.0000593 rev/day2

B* drag term: 0.0021937 1/REarth

Two-line elements (TLE)

Creation date: July 4, 2025, 6:39 p.m.

Reference frame: TEME

Reference center: EARTH

Epoch: July 4, 2025, 2:34 a.m. UTC

TLE line 0: 0 COSMOS 1275 DEB

TLE line 1: 1 13804U 81053GY 25185.10743235 .00005930 00000-0 21937-2 0 9990

TLE line 2: 2 13804 82.9450 157.2203 0041742 24.3752 103.4204 14.31754593170911

Live tracking on map

Real-time ground track for satellite COSMOS 1275 DEB.

In-orbit conjunctions

A list of the most updated potential collisions computed for object COSMOS 1275 DEB.

Target Orbit TCA Probability of collision Miss distance Type
SL-8 DEB LEO 2025-05-10 20:41:52 0.0002110055 140.0 (m) DEBRIS
SL-8 DEB LEO 2025-04-24 04:08:01 0.0004382688 40.0 (m) DEBRIS
IRIDIUM 33 LEO 2024-12-17 10:21:53 0.0001009904 458.0 (m) PAYLOAD
DELTA 1 R/B HEO 2024-11-29 16:26:51 0.0001018109 351.0 (m) ROCKET BODY
THOR BURNER 2 R/B SSO 2024-11-10 07:30:37 0.0005689307 224.0 (m) ROCKET BODY

Associated space launch

Navigation satellite providing location information for the Tsiklon-B navigation system

COSMOS 1275 DEB was lifted into orbit during the mission ‘Kosmos-3M | Parus 27’, on board a Kosmos-3M space rocket.

The launch took place on June 4, 1981, 3:41 p.m. from 132/2.

For more information about the launch, click the button.

Launch to space Kosmos-3M | Parus 27
Kosmos-3M | Parus 27

Agency: N/A

Status: Launch Successful

Launch date: June 4, 1981, 3:41 p.m. UTC

Rocket: Kosmos-3M

Launch pad: 132/2

Location: Plesetsk Cosmodrome, Russian Federation

...

Latest news about this satellite

There are no fresh news available about this satellite. Check back as we update our databases every day.


Newsletter sign-up

Weekly statistics, charts and insights to help you stay on top of the space industry.